Date String (YYYY-MM-DD hh:mm:ss) UTC,Instrument flags,Ambient pressure (hPa),Sample flow (lpm),Bypass flow (lpm),Sample temperature (°C),Ambient temperature (°C),ASC tube jacket temperature (°C),LED temperature (°C),Box temperature (°C),Sample RH (%),Span deviation,Mass concentration (μg/m³),Mass concentration (μg/m³),Mass concentration (μg/m³)
DateTimeUTC,F1_M11,P_M11,Q1_M11,Q2_M11,T1_M11,T2_M11,T3_M11,T4_M11,T5_M11,U1_M11,ZSPAN_M11,X2_M11,X0_M11,X1_M11
2023-04-28 02:00:00,,0828.5,5.01,0.00,25.7,23.9,00.0,34.3,27.1,21.2,0000.0,0000.49,0001.21,0000.15
2023-04-28 02:01:00,,0828.6,5.00,0.00,25.6,23.9,00.0,34.2,27.0,21.2,0000.0,0000.47,0001.15,0000.15
2023-04-28 02:02:00,,0828.6,4.99,0.00,25.6,23.9,00.0,34.2,27.0,21.3,0000.0,0000.45,0001.10,0000.15
2023-04-28 02:03:00,,0828.6,4.99,0.00,25.6,23.9,00.0,34.2,27.0,21.3,0000.0,0000.40,0001.00,0000.14
2023-04-28 02:04:00,,0828.7,5.01,0.00,25.6,23.9,00.0,34.2,27.0,21.4,0000.0,0000.41,0001.07,0000.14
2023-04-28 02:05:00,,0828.7,5.01,0.00,25.6,23.9,00.0,34.2,27.0,21.5,0000.0,0000.42,0001.17,0000.14
2023-04-28 02:06:00,,0828.8,5.01,0.00,25.6,23.9,00.0,34.2,27.0,21.4,0000.0,0000.39,0001.10,0000.14
2023-04-28 02:07:00,,0828.9,5.01,0.00,25.6,23.9,00.0,34.1,27.0,21.4,0000.0,0000.42,0001.14,0000.15
2023-04-28 02:08:00,,0828.9,5.00,0.00,25.5,23.9,00.0,34.1,26.9,21.4,0000.0,0000.40,0001.07,0000.15
2023-04-28 02:09:00,,0828.9,5.01,0.00,25.5,23.9,00.0,34.1,26.9,21.4,0000.0,0000.42,0001.03,0000.16
2023-04-28 02:10:00,,0829.0,4.98,0.00,25.5,23.8,00.0,34.1,26.9,21.3,0000.0,0000.42,0001.02,0000.16
2023-04-28 02:11:00,,0829.0,4.99,0.00,25.5,23.8,00.0,34.1,26.9,21.3,0000.0,0000.47,0001.21,0000.17
2023-04-28 02:12:00,,0829.1,5.00,0.00,25.5,23.8,00.0,34.1,26.9,21.3,0000.0,0000.53,0001.46,0000.17
2023-04-28 02:13:00,,0829.1,5.00,0.00,25.5,23.8,00.0,34.0,26.9,21.3,0000.0,0000.52,0001.42,0000.17
2023-04-28 02:14:00,,0829.2,5.01,0.00,25.4,23.8,00.0,34.0,26.9,21.2,0000.0,0000.51,0001.49,0000.17
2023-04-28 02:15:00,,0829.3,5.01,0.00,25.4,23.8,00.0,34.0,26.9,21.2,0000.0,0000.48,0001.36,0000.16
2023-04-28 02:16:00,,0829.3,4.99,0.00,25.4,23.8,00.0,34.0,26.8,21.2,0000.0,0000.49,0001.32,0000.17
2023-04-28 02:17:00,,0829.3,5.00,0.00,25.4,23.7,00.0,34.0,26.8,21.3,0000.0,0000.49,0001.31,0000.17
2023-04-28 02:18:00,,0829.4,5.00,0.00,25.4,23.7,00.0,34.0,26.8,21.3,0000.0,0000.46,0001.29,0000.17
2023-04-28 02:19:00,,0829.4,5.00,0.00,25.4,23.7,00.0,33.9,26.8,21.3,0000.0,0000.47,0001.31,0000.16
2023-04-28 02:20:00,,0829.4,5.01,0.00,25.4,23.7,00.0,33.9,26.8,21.4,0000.0,0000.51,0001.36,0000.17
2023-04-28 02:21:00,,0829.4,5.01,0.00,25.3,23.7,00.0,33.9,26.8,21.4,0000.0,0000.54,0001.46,0000.17
2023-04-28 02:22:00,,0829.4,5.01,0.00,25.3,23.7,00.0,33.9,26.7,21.6,0000.0,0000.53,0001.34,0000.17
2023-04-28 02:23:00,,0829.3,4.98,0.00,25.3,23.7,00.0,33.9,26.7,21.8,0000.0,0000.49,0001.14,0000.17
2023-04-28 02:24:00,,0829.4,5.00,0.00,25.3,23.7,00.0,33.9,26.8,21.7,0000.0,0000.51,0001.18,0000.18
2023-04-28 02:25:00,,0829.4,5.00,0.00,25.3,23.7,00.0,33.9,26.7,21.7,0000.0,0000.55,0001.22,0000.19
2023-04-28 02:26:00,,0829.4,5.00,0.00,25.3,23.7,00.0,33.9,26.7,21.6,0000.0,0000.57,0001.29,0000.20
2023-04-28 02:27:00,,0829.4,5.01,0.00,25.3,23.6,00.0,33.8,26.7,21.6,0000.0,0000.62,0001.38,0000.20
2023-04-28 02:28:00,,0829.4,5.00,0.00,25.3,23.6,00.0,33.8,26.7,21.5,0000.0,0000.65,0001.78,0000.20
2023-04-28 02:29:00,,0829.3,5.00,0.00,25.2,23.5,00.0,33.8,26.7,21.5,0000.0,0000.68,0002.07,0000.22
2023-04-28 02:30:00,,0829.3,5.00,0.00,25.2,23.5,00.0,33.8,26.6,21.1,0000.0,0000.72,0002.18,0000.23
2023-04-28 02:31:00,,0829.5,5.00,0.00,25.2,23.4,00.0,33.8,26.6,20.9,0000.0,0000.76,0002.30,0000.23
2023-04-28 02:32:00,,0829.6,5.00,0.00,25.2,23.4,00.0,33.8,26.6,21.0,0000.0,0000.82,0002.47,0000.24
2023-04-28 02:33:00,,0829.6,5.00,0.00,25.2,23.4,00.0,33.7,26.6,21.1,0000.0,0000.82,0002.50,0000.23
2023-04-28 02:34:00,,0829.6,4.98,0.00,25.1,23.4,00.0,33.7,26.6,21.2,0000.0,0000.88,0002.87,0000.24
2023-04-28 02:35:00,,0829.7,5.00,0.00,25.1,23.3,00.0,33.7,26.6,21.3,0000.0,0000.90,0003.09,0000.25
2023-04-28 02:36:00,,0829.7,5.00,0.00,25.1,23.3,00.0,33.7,26.6,21.3,0000.0,0000.86,0002.93,0000.25
2023-04-28 02:37:00,,0829.7,5.00,0.00,25.1,23.3,00.0,33.7,26.5,21.2,0000.0,0000.85,0003.40,0000.25
2023-04-28 02:38:00,,0829.7,5.00,0.00,25.1,23.3,00.0,33.6,26.6,21.2,0000.0,0000.84,0003.69,0000.25
2023-04-28 02:39:00,,0829.7,5.01,0.00,25.1,23.3,00.0,33.6,26.5,21.3,0000.0,0000.85,0003.57,0000.25
2023-04-28 02:40:00,,0829.7,4.98,0.00,25.0,23.3,00.0,33.6,26.5,21.3,0000.0,0000.84,0003.43,0000.24
2023-04-28 02:41:00,,0829.7,5.00,0.00,25.0,23.3,00.0,33.6,26.5,21.4,0000.0,0000.79,0003.40,0000.23
2023-04-28 02:42:00,,0829.7,5.01,0.00,25.0,23.3,00.0,33.6,26.5,21.4,0000.0,0000.77,0003.46,0000.23
2023-04-28 02:43:00,,0829.7,5.00,0.00,25.0,23.3,00.0,33.6,26.5,21.4,0000.0,0000.72,0003.30,0000.23
2023-04-28 02:44:00,,0829.7,5.00,0.00,25.0,23.3,00.0,33.6,26.5,21.4,0000.0,0000.74,0003.34,0000.23
2023-04-28 02:45:00,,0829.7,5.00,0.00,25.0,23.3,00.0,33.5,26.5,21.3,0000.0,0000.67,0002.97,0000.22
2023-04-28 02:46:00,,0829.7,5.01,0.00,25.0,23.3,00.0,33.5,26.5,21.2,0000.0,0000.65,0002.72,0000.21
2023-04-28 02:47:00,,0829.7,5.00,0.00,25.0,23.3,00.0,33.5,26.5,21.4,0000.0,0000.64,0002.72,0000.20
2023-04-28 02:48:00,,0829.8,5.00,0.00,25.0,23.3,00.0,33.5,26.5,21.2,0000.0,0000.63,0002.28,0000.20
2023-04-28 02:49:00,,0829.8,4.98,0.00,25.0,23.3,00.0,33.5,26.5,21.2,0000.0,0000.63,0002.04,0000.20
2023-04-28 02:50:00,,0829.8,5.00,0.00,25.0,23.3,00.0,33.5,26.5,21.2,0000.0,0000.61,0001.87,0000.20
2023-04-28 02:51:00,,0829.8,5.00,0.00,25.0,23.4,00.0,33.5,26.5,21.0,0000.0,0000.58,0001.72,0000.20
2023-04-28 02:52:00,,0829.8,5.00,0.00,25.0,23.4,00.0,33.5,26.6,21.1,0000.0,0000.61,0001.72,0000.19
2023-04-28 02:53:00,,0829.8,5.00,0.00,25.0,23.5,00.0,33.5,26.6,21.1,0000.0,0000.62,0001.73,0000.20
2023-04-28 02:54:00,,0829.8,5.00,0.00,25.0,23.5,00.0,33.5,26.6,21.0,0000.0,0000.61,0001.70,0000.20
2023-04-28 02:55:00,,0829.8,5.01,0.00,25.0,23.5,00.0,33.5,26.6,20.9,0000.0,0000.64,0001.87,0000.20
2023-04-28 02:56:00,,0829.9,5.00,0.00,25.0,23.5,00.0,33.5,26.6,20.7,0000.0,0000.69,0002.24,0000.21
2023-04-28 02:57:00,,0829.9,5.00,0.00,25.0,23.6,00.0,33.5,26.6,20.5,0000.0,0000.70,0002.43,0000.22
2023-04-28 02:58:00,,0830.0,5.00,0.00,25.0,23.6,00.0,33.5,26.6,20.6,0000.0,0000.76,0002.59,0000.23
2023-04-28 02:59:00,,0830.0,5.00,0.00,25.0,23.6,00.0,33.5,26.6,20.7,0000.0,0000.77,0002.55,0000.24
